Home > Weather > Enschede > Past weeks

Flag for Netherlands Weather for the Past 2 Weeks in Enschede, Netherlands

Now
46 °F

Broken clouds.


Feels Like: 40 °F
Forecast: 39 / 44 °F
Wind: 16 mph from South

Location: Deelen

Current Time: Feb 8, 2016 at 9:38:45 AM

Latest Report: Feb 8, 2016 at 8:55 AM


Visibility: N/A

Pressure: 29.15 "Hg

Humidity: 87%

Dew point: 43 °F

Location of EnschedeLocation

Historic Weather in Enschede — Graph

°F

Enschede Temperature Yesterday

Maximum temperature yesterday: 52 °F (at 5:25 AM)
Minimum temperature yesterday: 45 °F (at 8:25 AM)
Average temperature yesterday: 47 °F

High & Low Weather Summary for the Past Weeks

 TemperatureHumidityPressure
High57 °F (Jan 25, 2:25 PM)100% (Jan 24, 8:55 AM)30.36 "Hg (Jan 24, 8:55 AM)
Low34 °F (Feb 3, 10:55 PM)58% (Jan 25, 7:25 PM)29.15 "Hg (Feb 8, 7:25 AM)
Average46 °F87%29.95 "Hg
* Reported Jan 24 8:25 AM — Feb 8 8:25 AM, Enschede, Weather by CustomWeather, © 2016

Note: Actual official high and low records may vary slightly from our data, if they occured in-between our weather recording intervals... More about our weather records

Advertising

Enschede Weather History for the Previous 24 Hours

 ConditionsComfort  
Time TempWeatherWind HumidityBarometerVisibility
8:25 AM
Mon, Feb 8
46 °FBroken clouds.17 mph87%29.15 "HgN/A
7:55 AM46 °FPartly cloudy.22 mph87%29.15 "HgN/A
7:25 AM46 °FPartly cloudy.22 mph87%29.15 "HgN/A
6:55 AM46 °FPartly cloudy.21 mph87%29.18 "HgN/A
6:25 AM46 °FRain. Partly cloudy.18 mph93%29.21 "Hg2 mi
5:55 AM46 °FSprinkles. Partly cloudy.21 mph93%29.18 "HgN/A
5:25 AM46 °FLight rain. Passing clouds.22 mph87%29.21 "HgN/A
4:55 AM46 °FDrizzle. Mostly cloudy.23 mph87%29.21 "HgN/A
4:25 AM46 °FRain showers. Mostly cloudy.24 mph87%29.24 "Hg3 mi
3:55 AM46 °FDrizzle. Overcast.23 mph82%29.24 "HgN/A
2:55 AM45 °FMostly cloudy.23 mph81%29.30 "HgN/A
2:25 AM45 °FSprinkles. Mostly cloudy.24 mph81%29.33 "HgN/A
1:55 AM45 °FOvercast.22 mph76%29.33 "HgN/A
1:25 AM45 °FMostly cloudy.20 mph76%29.36 "HgN/A
12:55 AM45 °FPartly cloudy.22 mph76%29.39 "HgN/A
12:25 AM45 °FPassing clouds.22 mph76%29.42 "HgN/A
11:55 PM
Sun, Feb 7
45 °FPassing clouds.18 mph71%29.42 "HgN/A
11:25 PM45 °FPassing clouds.20 mph71%29.45 "HgN/A
10:55 PM45 °FPassing clouds.18 mph71%29.47 "HgN/A
10:25 PM45 °FPassing clouds.17 mph66%29.47 "HgN/A
9:55 PM45 °FPassing clouds.16 mph66%29.50 "HgN/A
9:25 PM45 °FQuite cool.16 mph71%29.50 "HgN/A
8:55 PM45 °FPassing clouds.18 mph71%29.53 "HgN/A
8:25 PM45 °FPartly cloudy.17 mph71%29.53 "HgN/A
7:55 PM45 °FPassing clouds.18 mph71%29.53 "HgN/A
7:25 PM45 °FOvercast.16 mph71%29.53 "HgN/A
6:55 PM45 °FPassing clouds.15 mph71%29.53 "HgN/A
6:25 PM46 °FPartly cloudy.16 mph66%29.53 "HgN/A
5:55 PM46 °FPassing clouds.15 mph66%29.53 "HgN/A
5:25 PM46 °FPassing clouds.17 mph66%29.53 "HgN/A
4:55 PM46 °FMostly cloudy.16 mph66%29.53 "HgN/A
4:25 PM46 °FBroken clouds.20 mph66%29.53 "HgN/A
3:55 PM48 °FPassing clouds.18 mph66%29.50 "HgN/A
3:25 PM48 °FMostly cloudy.21 mph66%29.50 "HgN/A
2:55 PM48 °FMostly cloudy.23 mph66%29.50 "HgN/A
2:25 PM48 °FBroken clouds.18 mph71%29.50 "HgN/A
1:55 PM48 °FBroken clouds.18 mph71%29.47 "HgN/A
1:25 PM48 °FBroken clouds.20 mph71%29.47 "HgN/A
12:55 PM48 °FBroken clouds.18 mph71%29.47 "HgN/A
12:25 PM48 °FBroken clouds.20 mph76%29.47 "HgN/A
11:55 AM46 °FBroken clouds.17 mph82%29.47 "HgN/A
11:25 AM46 °FCloudy.16 mph82%29.47 "HgN/A
10:55 AM46 °FPartly sunny.16 mph87%29.45 "HgN/A
10:25 AM46 °FMore clouds than sun.14 mph87%29.45 "HgN/A
9:55 AM45 °FPartly sunny.14 mph93%29.45 "HgN/A
9:25 AM45 °FOvercast.13 mph93%29.42 "HgN/A
Weather by CustomWeather, © 2016

See weather overviewHow to use our weather pages